Location: Newark
(25.6108°S, 54.5803°W)
Time: 16:34:24
(UTC+00:00)

Courier 1B Rocket - Pass Details

Date: 03 November 2020
Orbit: 920 x 1202 km, 28.2° (Epoch: 22 November)

Event Time Altitude Azimuth Distance (km) Brightness Sun altitude
Rises 09:04:29 0° 271° (W) 4,050 7.6 2.7°
Reaches altitude 10° 09:07:23 10° 269° (W) 3,060 7.0 3.4°
Maximum altitude 09:14:58 73° 184° (S) 1,152 5.6 5.0°
Drops below altitude 10° 09:22:00 10° 99° (E) 2,858 10.4 6.6°
Sets 09:24:39 0° 97° (E) 3,769 10.5 7.1°
